www.pogodaiklimat.ru

Погода и климат >> Архив погоды >> Хорватия >> Раб


ПОГОДА в Рабе

  • Прогноз погоды в Рабе
  • Монитор погоды в Рабе

АРХИВ ПОГОДЫ в Рабе

Время (UTC), дата Ветер
(напр.,м/с)
 
Видим.   Явления Облачность Т
(С)
Тd
(С)
f
(%)
Тe
(С)
Тes
(С)
Комфортность P
(гПа)
Po
(гПа)
Тmin
(С)
Tmax
(С)
R
(мм)
R24
(мм)
S
(см)
04 14.05 СВ 6 н/о н/о +12.7 -0.5 40 +11 +11 1015.1 1012.7
05 14.05 В 6 н/о н/о +12.8 -1.1 38 +11 +11 1016.0 1013.6
06 14.05 В 6
{17}
12 км слаб. дождь 9/8 600 м
[Cu Sc Ac As]
+12.5 -0.2 42 +10 +11 1015.8 1013.4 +11.5 0.4
07 14.05 В 4 13 км в посл. час дождь 10/4 600 м
[Cu Sc As trans]
+13.1 +1.0 44 +12 +13 1016.0 1013.6
08 14.05 В 4 14 км 9/3 1000 м
[Sc As op]
+13.2 +0.3 41 +12 +14 1016.2 1013.8
09 14.05 В 3 14 км слаб. дождь 9/3 1000 м
[Cu Sc As trans]
+13.0 +1.2 45 +12 +16 1015.9 1013.5
10 14.05 СВ 4 20 км в посл. час дождь 9/8 1000 м
[Cu Sc As trans]
+12.7 +1.3 46 +11 +13 1016.3 1013.9
11 14.05 СВ 4 18 км 9/9 1000 м
[Cu Sc]
+13.1 +0.1 41 +12 +13 1015.8 1013.4
12 14.05 СВ 3 20 км {дождь} 8/8 1000 м
[Cu Sc Ac lent]
+12.5 +1.9 48 +11 +14 1015.8 1013.4 0.0
13 14.05 В 4 25 км 8/8 1000 м
[Cu Sc Ac lent]
+13.0 +0.9 44 +12 +14 1015.8 1013.4
14 14.05 СВ 2 н/о н/о +13.4 -0.6 38 +13 +13 1016.3 1013.9
15 14.05 В 3 н/о н/о +12.5 -2.1 36 +11 +11 1016.2 1013.8
16 14.05 С 2 н/о н/о +12.1 -1.4 39 +12 +12 1015.8 1013.4
17 14.05 СВ 3 н/о н/о +11.9 -1.2 40 +11 +11 1015.7 1013.3
18 14.05 СВ 4 40 км 9/9 1000 м
[Sc]
+11.5 +0.1 45 +10 +10 1015.0 1012.6 +13.5 0.0
19 14.05 В 2 40 км 9/9 1000 м
[Sc]
+11.4 +0.3 46 +11 +11 1015.4 1013.0
20 14.05 В 2 40 км 9/9 1000 м
[Sc]
+11.2 +0.6 48 +10 +10 1015.9 1013.5
21 14.05 В 4 н/о н/о +10.8 -0.6 45 +9 +9 1015.7 1013.3
00 15.05 ЮВ 2 н/о н/о +11.5 +0.3 46 +11 +11 1013.6 1011.2
03 15.05 С 1 н/о н/о +10.8 +1.1 51 +11 +11 1012.2 1009.8
04 15.05 ЮВ 1 н/о н/о +10.9 +2.0 54 +11 +11 1012.6 1010.2
05 15.05 ЮЗ 2 н/о н/о +11.2 +3.8 60 +10 +10 1012.8 1010.4
06 15.05 ЮЗ 3 40 км 10/10 1000 м
[Cu Sc]
+11.1 +5.3 67 +9 +9 1012.7 1010.3 +10.3
07 15.05 штиль 0 40 км 9/9 1000 м
[Cu Sc]
+12.1 +5.1 62 +12 +13 1012.7 1010.3
08 15.05 ЮЗ 2 45 км 8/3 1000 м
[Cu Sc Ac As]
+13.0 +5.1 59 +12 +16 1012.6 1010.2
09 15.05 ЮЗ 2 45 км 6/3 1000 м
[Cu Sc Ac lent]
+14.8 +5.5 54 +15 +21 1012.5 1010.1
10 15.05 ЮЗ 2 45 км 9/8 1000 м
[Cu Sc Ac lent]
+14.3 +4.8 53 +14 +16 1012.9 1010.5
11 15.05 ЮЗ 2 45 км 5/3 1000 м
[Cu Sc Ac trans Ci fib]
+14.5 +3.9 49 +14 +25 опасность
простуды
1012.9 1010.5
12 15.05 С 2 45 км 4/1 1000 м
[Cu med, cong Ac trans Ci sp]
+15.7 +4.2 46 +16 +29 опасность
простуды
1012.6 1010.2
13 15.05 ЮЗ 2 45 км 5/1 1000 м
[Cu med, cong Ac trans Cc]
+17.2 +5.6 46 +18 +28 1012.6 1010.2
14 15.05 ЮЗ 2 н/о н/о +17.6 +4.2 41 +18 +18 1013.0 1010.6
15 15.05 Ю 2 н/о н/о +17.1 +3.4 40 +17 +17 1012.9 1010.5
16 15.05 С 3 н/о н/о +15.3 +2.8 43 +15 +15 1012.8 1010.4
18 15.05 штиль 0 40 км 9/1 1000 м
[Cu hum Ac As Ci sp]
+13.8 +4.2 52 +14 +14 1012.2 1009.8 +18.1
19 15.05 В 1 40 км 9/1 1000 м
[Sc diur, vesp Ac As Cs]
+13.3 +4.5 55 +14 +14 1012.3 1009.9
20 15.05 В 1 40 км 8/1 1000 м
[Sc diur, vesp Cs]
+13.1 +3.7 53 +14 +14 1012.7 1010.3
04 16.05 ЮВ 1 н/о н/о +10.7 +3.3 60 +11 +11 1011.6 1009.2
05 16.05 СВ 1 н/о н/о +11.1 +4.4 63 +11 +11 1011.7 1009.3
06 16.05 штиль 0 50 км 8/1 1000 м
[Sc diur, vesp Ac As]
+12.6 +7.3 70 +12 +14 1011.7 1009.3 +10.1
07 16.05 З 1 50 км 9/1 1000 м
[Sc diur, vesp Ac As]
+14.5 +7.6 63 +15 +18 1011.8 1009.4
08 16.05 ЮЗ 2 50 км 8/1 1000 м
[Cu hum Ac trans]
+15.0 +7.6 61 +15 +20 1011.8 1009.4
09 16.05 ЮЗ 3 50 км 8/1 1000 м
[Cu hum Ac trans]
+15.7 +8.0 60 +15 +21 1011.8 1009.4
10 16.05 ЮЗ 2 50 км 6/1 1000 м
[Cu med, cong Ac trans]
+16.4 +8.0 58 +17 +27 1011.6 1009.2
11 16.05 ЮЗ 2 50 км 4/1 1000 м
[Cu med, cong Ac lent]
+17.3 +5.7 46 +18 +30 опасность
простуды
1011.3 1008.9
12 16.05 ЮЗ 2 50 км 3/1 1000 м
[Cu med, cong Ac cast]
+17.8 +8.0 53 +18 +32 опасность
простуды
1011.1 1008.8
13 16.05 Ю 2 50 км 3/3 1000 м
[Cu med, cong Ac lent]
+17.2 +7.2 52 +18 +28 1011.0 1008.6
14 16.05 н/о н/о +18.5 +6.4 45 1011.0 1008.6
15 16.05 СЗ 3 н/о н/о +19.1 +4.1 37 +20 +20 1010.7 1008.3
16 16.05 С 2 н/о н/о +19.8 +5.1 38 +21 +21 комфорт 1010.5 1008.1
17 16.05 С 2 н/о н/о +18.1 +5.7 44 +19 +19 1010.5 1008.1
18 16.05 С 2 45 км 1/1 1000 м
[Cu hum Ac lent]
+17.2 +6.1 48 +18 +18 1010.1 1007.8 +19.5
19 16.05 С 2 45 км 1/1 1000 м
[Cu hum Ac lent]
+15.3 +5.2 51 +15 +15 1010.6 1008.2
20 16.05 С 1 45 км 1/1 1000 м
[Cu hum]
+14.8 +4.8 51 +15 +15 1010.6 1008.2
21 16.05 штиль 0 н/о н/о +13.4 +4.9 56 +13 +13 1011.4 1009.0
00 17.05 С 1 н/о н/о +11.9 +5.6 65 +12 +12 1011.2 1008.8
03 17.05 штиль 0 н/о н/о +10.9 +6.7 75 +10 +10 1010.7 1008.3
04 17.05 СВ 1 н/о н/о +10.7 +6.9 77 +10 +10 1010.9 1008.5
05 17.05 штиль 0 н/о н/о +11.1 +7.1 76 +11 +11 1011.0 1008.6
06 17.05 ЮВ 1 45 км 1/1 1000 м
[Cu hum]
+13.3 +8.9 75 +14 +18 1010.7 1008.3 +10.6
07 17.05 ЮВ 2 45 км 1/1 1000 м
[Cu hum]
+16.2 +8.4 60 +16 +23 1011.3 1008.9
08 17.05 Ю 2 45 км 1/1 1000 м
[Cu hum]
+16.4 +8.4 59 +17 +27 1011.3 1008.9
09 17.05 ЮЗ 2 45 км 1/1 1000 м
[Cu hum]
+17.5 +9.3 59 +18 +31 опасность
простуды
1011.0 1008.7
10 17.05 ЮЗ 2 45 км 1/1 1000 м
[Cu med, cong Ci fib]
+18.2 +10.6 61 +19 +35 опасность
простуды
1011.0 1008.7
11 17.05 ЮЗ 2 45 км 3/1 1000 м
[Cu med, cong Ci fib]
+18.3 +10.9 62 +19 +35 опасность
простуды
1011.0 1008.7
12 17.05 ЮЗ 2 45 км 3/1 1000 м
[Cu med, cong Ci fib]
+18.6 +11.5 63 +20 +35 опасность
простуды
1011.0 1008.7
13 17.05 ЮЗ 1 45 км 5/1 1000 м
[Cu med, cong Ci sp]
+18.5 +10.9 61 +20 +35 опасность
простуды
1010.7 1008.4
14 17.05 ЮЗ 1 н/о н/о +19.7 +6.1 41 +21 +21 комфорт 1010.7 1008.3
15 17.05 ЮЗ 2 н/о н/о +19.5 +5.2 39 +21 +21 комфорт 1010.5 1008.1
16 17.05 ЮЗ 1 н/о н/о +19.4 +5.5 40 +21 +21 комфорт 1009.8 1007.4
17 17.05 СЗ 1 н/о н/о +19.4 +6.9 44 +21 +21 комфорт 1009.4 1007.0
18 17.05 З 1 40 км 4/1 1000 м
[Cu med, cong Ci]
+18.5 +7.1 47 +20 +20 1008.7 1006.4 +19.6
19 17.05 СВ 1 40 км 4/0
[Cs]
+16.5 +7.5 55 +17 +17 1008.7 1006.3
20 17.05 С 1 40 км 8/0
[Cs]
+15.4 +7.4 59 +16 +16 1008.7 1006.3
21 17.05 штиль 0 н/о н/о +14.6 +7.5 62 +14 +14 1009.6 1007.2
00 18.05 В 1 н/о н/о +14.2 +8.0 66 +15 +15 1008.8 1006.4
03 18.05 штиль 0 н/о н/о +14.5 +8.7 68 +14 +14 1007.9 1005.5
04 18.05 С 1 н/о н/о +14.1 +8.8 70 +15 +15 1007.8 1005.4
05 18.05 СВ 1 н/о н/о +15.6 +10.0 69 +16 +16 1007.8 1005.4
06 18.05 С 1 35 км 8/3 1000 м
[Cu Sc Ac cast Cc]
+16.2 +11.0 71 +17 +19 1006.9 1004.6 +13.6
07 18.05 ЮЗ 1 35 км 6/3 1000 м
[Cu Sc Ac cast Cc]
+19.4 +9.0 51 +21 +26 комфорт 1006.9 1004.6
08 18.05 ЮЗ 1 35 км 8/8 1000 м
[Cu Sc Ac lent]
+20.0 +9.8 52 +22 +25 комфорт 1006.4 1004.1
09 18.05 З 1 35 км 9/9 1000 м
[Cu Sc]
+19.1 +9.5 54 +21 +23 комфорт 1006.5 1004.2
10 18.05 ЮВ 5 30 км 9/9 1000 м
[Cu Sc]
+20.2 +10.2 53 +22 +22 комфорт 1006.4 1004.1
11 18.05 ЮВ 4 30 км слаб. дождь 9/9 1000 м
[Cu Sc]
+19.7 +12.2 62 +21 +22 комфорт 1006.4 1004.1
12 18.05 ЮВ 4 10 км дождь 10/0 600 м
[As op]
+15.3 +13.4 88 +14 +17 1007.5 1005.1 3
13 18.05 В 1 15 км слаб. дождь 10/10 1000 м
[Cu Sc]
+16.3 +13.8 85 +17 +17 1007.1 1004.8
14 18.05 В 1 н/о н/о +17.2 +12.2 72 +18 +18 1007.1 1004.7
15 18.05 С 1 н/о н/о +17.7 +13.1 74 +19 +19 1007.4 1005.0
16 18.05 ЮВ 3 н/о н/о +16.9 +11.2 69 +17 +17 1007.3 1004.9
17 18.05 ЮВ 1 н/о н/о +17.0 +11.1 68 +18 +18 1007.6 1005.2
18 18.05 С 1 17 км в посл. час дождь 10/10 1000 м
[Sc]
+16.3 +13.1 81 +17 +17 1007.6 1005.3 +20.6 5
19 18.05 СВ 2 20 км 10/10 1000 м
[Sc]
+15.3 +12.7 84 +15 +15 1007.2 1004.8
20 18.05 СВ 2 20 км 9/9 1000 м
[Sc]
+15.5 +12.3 81 +15 +15 1007.9 1005.5
21 18.05 штиль 0 н/о н/о +15.3 +11.9 80 +15 +15 1008.0 1005.6
00 19.05 СЗ 1 н/о н/о +15.1 +11.4 79 +16 +16 1007.0 1004.6
03 19.05 СЗ 1 н/о н/о +14.3 +11.9 85 +15 +15 1005.7 1003.3
04 19.05 штиль 0 н/о н/о +14.2 +12.3 88 +14 +14 1005.8 1003.4
05 19.05 СВ 1 н/о н/о +14.4 +12.7 90 +15 +15 1005.6 1003.2
06 19.05 штиль 0 23 км 9/4 1000 м
[Sc Ac As Ci sp]
+16.3 +15.3 94 +16 +18 1004.6 1002.3 +14.0 5
07 19.05 штиль 0 23 км 8/3 1000 м
[Cu Sc Ac As Ci sp]
+16.8 +13.6 81 +17 +21 1004.9 1002.6
08 19.05 З 1 30 км 9/3 1000 м
[Cu Sc Ac As Ci sp]
+18.5 +14.3 77 +20 +26 1004.7 1002.4
09 19.05 Ю 1 35 км 9/9 1000 м
[Cu Sc]
+18.5 +11.9 65 +20 +22 1004.9 1002.6
10 19.05 штиль 0 35 км 9/9 1000 м
[Cu Sc]
+18.2 +12.1 68 +18 +21 1004.6 1002.3
11 19.05 Ю 1 35 км 9/6 1000 м
[Cu Sc Ac As]
+19.2 +12.4 65 +21 +26 комфорт 1004.3 1002.0
12 19.05 Ю 1 35 км 8/3 1000 м
[Cu Sc Ac As Cc]
+20.5 +11.6 57 +24 +33 комфорт 1003.9 1001.6
13 19.05 ЮЗ 2 35 км 9/5 1000 м
[Cu Sc Ac As Ci fib]
+20.9 +11.3 54 +24 +28 комфорт 1004.1 1001.8
14 19.05 Ю 3 н/о н/о +17.8 +12.5 71 +18 +18 1004.9 1002.5
15 19.05 Ю 1 н/о н/о +16.7 +13.3 80 +18 +18 1004.9 1002.5
16 19.05 штиль 0 н/о н/о +16.7 +13.5 81 +17 +17 1005.0 1002.6
17 19.05 С 1 н/о н/о +16.6 +13.0 79 +17 +17 1004.7 1002.3
18 19.05 СВ 1 17 км 8/8 600 м
[Cu Sc]
+16.4 +13.2 81 +17 +17 1003.9 1001.6 +21.3 0.3
19 19.05 СЗ 1 15 км 9/9 600 м
[Cu Sc]
+16.0 +13.3 84 +17 +17 1003.8 1001.5
20 19.05 В 1 12 км слаб. дождь 10/3 600 м
[Frnb As op]
+15.1 +13.6 91 +16 +16 1004.2 1001.9
21 19.05 штиль 0 н/о н/о +14.6 +12.9 90 +14 +14 1005.0 1002.6
00 20.05 Ю 3 н/о н/о +13.7 +12.3 91 +12 +12 1005.1 1002.7
03 20.05 Ю 2 н/о н/о +14.3 +13.3 94 +14 +14 1005.1 1002.7
04 20.05 Ю 2 н/о н/о +14.1 +13.1 94 +14 +14 1005.4 1003.0
05 20.05 Ю 2 н/о н/о +14.2 +13.2 94 +14 +14 1005.7 1003.3
06 20.05 Ю 2 13 км слаб. дождь 10/10 300 м
[Cu Sc]
+14.8 +13.4 91 +14 +14 1005.3 1002.9 +13.4 19
07 20.05 ЮВ 4 12 км в посл. час дождь 10/10 600 м
[Cu Sc]
+14.2 +12.5 90 +13 +13 1006.0 1003.6
08 20.05 ЮВ 4 12 км 10/10 600 м
[Cu Sc]
+14.5 +11.9 84 +13 +13 1006.5 1004.1
09 20.05 ЮВ 4 13 км {дождь} 9/9 600 м
[Cu Sc]
+15.0 +12.3 84 +14 +15 1007.2 1004.8
10 20.05 ЮВ 4 14 км 9/9 600 м
[Cu Sc]
+15.7 +12.6 82 +15 +16 1007.6 1005.2
11 20.05 ЮВ 3 14 км 9/5 600 м
[Cu Sc Ac As]
+17.0 +12.3 74 +17 +20 1007.8 1005.5
12 20.05 Ю 3 16 км {дождь} 8/4 600 м
[Cu Sc Ac lent Ci sp]
+18.0 +11.1 64 +18 +24 1008.1 1005.8 0.0
13 20.05 Ю 6 20 км 8/3 600 м
[Cu med, cong Ac cast Ci]
+17.8 +11.9 68 +17 +20 1008.1 1005.8
14 20.05 Ю 3 н/о н/о +20.1 +11.6 58 +22 +22 комфорт 1008.5 1006.2
15 20.05 Ю 4 н/о н/о +19.5 +11.1 58 +21 +21 комфорт 1008.5 1006.1
16 20.05 Ю 4 н/о н/о +18.6 +10.5 59 +19 +19 1008.3 1005.9
17 20.05 Ю 3 н/о н/о +17.2 +11.3 68 +17 +17 1008.4 1006.0
18 20.05 Ю 4 22 км 9/5 1000 м
[Sc Ac As]
+16.4 +13.2 81 +16 +16 1007.8 1005.5 +20.2 0.0
19 20.05 ЮВ 3 22 км слаб. дождь 10/10 1000 м
[Sc]
+15.9 +13.6 86 +15 +15 1007.8 1005.5
20 20.05 ЮВ 3 22 км в посл. час дождь 10/10 1000 м
[Sc]
+15.7 +13.5 87 +15 +15 1008.1 1005.7
21 20.05 ЮВ 4 н/о н/о +15.9 +10.7 71 +15 +15 1009.1 1006.7
00 21.05 ЮВ 5 н/о н/о +15.9 +11.1 73 +15 +15 1009.6 1007.2

 

Местоположение метеостанции Раб (Хорватия): широта 44.75 долгота 14.77 высота над уровнем моря 20 м.

В архиве по умолчанию представлена погода в Рабе за последнюю неделю. Архивные данные за месяц целиком и за предыдущие месяцы, начиная с января 2011 года, Вы можете получить, выбрав интересующий диапазон дат из раскрывающегося списка и нажав кнопку "Ввод!".


*Определитесь, кто Вы:
робот инопланетянин человек

Внимание! Время в таблицах - всемирное. Для получения местного времени необходимо прибавить поправку, которая равна 1 ч.

Смотрите также архив погоды в соседних городах и на ближайших метеорологических станциях:

Погода в Завизани (Хорватия) (18 км)
Погода в Сене (Хорватия) (30 км)
Погода в Мали-Лошине (Хорватия) (34 км)
Погода в Госпиче (Хорватия) (52 км)
Погода в Риека аэропорту (Хорватия) (54 км)
Погода в Огулине (Хорватия) (68 км)
Погода в Пуле (Хорватия) (69 км)
Погода в Риеке (Хорватия) (69 км)
Погода в Задаре (Хорватия) (78 км)
Погода в Пазине (Хорватия) (85 км)

Пояснения к столбцам:

Ветер - указаны скорость ветра в м/с - средняя за 10 мин, порывы в срок и между сроками (в фигурных скобках) и направление, откуда дует ветер: С - северный, СВ - северо-восточный, В - восточный, ЮВ - юго-восточный, Ю - южный, ЮЗ - юго-западный, З - западный, СЗ - северо-западный.
Видимость - горизонтальная дальность видимости в метрах или километрах. При видимости от 1 до 10 км при отсутствии осадков обычно наблюдается дымка, при ухудшении видимости до 1 км и менее - туман. В сухую погоду видимость может ухудшаться дымом, пылью или мглою.
Явления - указаны атмосферные явления, наблюдавшиеся в срок или в последний час перед сроком; фигурными скобками обозначены явления, наблюдавшиеся между сроками (за 1-3 часа до срока); квадратными скобками обозначены град или гололедные отложения с указанием их диаметра в мм.
Облачность - указаны через наклонную черту общая и нижняя облачность в баллах и высота нижней границы облаков в метрах; квадратными скобками обозначены формы облаков: Ci - перистые, Cs - перисто-слоистые, Cc - перисто-кучевые, Ac - высококучевые, As - высокослоистые, Sc - слоисто-кучевые, Ns - слоисто-дождевые, Cu - кучевые, Cb - кучево-дождевые. Подробнее классификацию облаков см. в Атласе облаков (PDF).
T - Температура воздуха - температура, измеренная на высоте 2 м над землей.
Td - Температура точки росы - температура, при понижении до которой содержащийся в воздухе водяной пар достигнет насыщения.
f - Относительная влажность воздуха - влажноcть воздуха, измеренная на высоте 2 м над землей.
Te - Эффективная температура - температура, которую ощущает одетый по сезону человек в тени. Характеристика душности погоды. При расчете учитывается влияние влажности воздуха и скорости ветра на теплоощущения человека.
Tes - Эффективная температура на солнце - температура, которую ощущает человек, с поправкой на солнечный нагрев. Характеристика знойности погоды. Зависит от высоты солнца над горизонтом, облачности и скорости ветра. Ночью, в пасмурную погоду, а также при ветре 12 м/с и более поправка равна нулю.
P - Атмосферное давление - приведенное к уровню моря атмосферное давление.
Po - Атмосферное давление - измеренное на уровне метеостанции атмосферное давление.
Tmin - Минимальная температура - минимум температуры воздуха на высоте 2 м над землей.
Tmax - Максимальная температура - максимум температуры воздуха на высоте 2 м над землей.
R - Количество осадков - Количество выпавших осадков за период времени, мм. При наведении курсора мыши на число - период времени, за который выпало указанное количество осадков.
R24 - Количество осадков - Количество выпавших осадков за 24 часа, мм.
S - Снежный покров - Высота снежного покрова, см. При наведении курсора мыши на число - состояние снежного покрова и степень покрытия местности в баллах.